DAH6039 DABT-DAAG

Flight info

Callsign DAH6039
Flight time 0h 43m
Altitude 26000
Route BTN DCT BJA UJ7 LIMON G26 ZEM
Aircraft B738/M-SDE2E3FGHIRWXY/LB1

Departure

Time 2026-05-06 18:24
Airport Batna Mostefa Ben Boulaid Airport (DABT)

Arrival

Time 2026-05-06 19:07
Airport Houari Boumediene Airport (DAAG)
Time Latitude Longitude Altitude Speed Heading
2026-05-06 17:58 35.75753 6.30979 2696 ft 0 kts 278°
2026-05-06 17:59 35.75752 6.30979 2696 ft 0 kts 278°
2026-05-06 18:15 35.75750 6.31003 2674 ft 4 kts 278°
2026-05-06 18:16 35.75746 6.31035 2696 ft 4 kts 277°
2026-05-06 18:16 35.75743 6.31068 2696 ft 4 kts 272°
2026-05-06 18:16 35.75743 6.31101 2696 ft 4 kts 266°
2026-05-06 18:16 35.75744 6.31110 2696 ft 1 kts 266°
2026-05-06 18:18 35.75743 6.31107 2696 ft 1 kts 255°
2026-05-06 18:18 35.75731 6.31097 2696 ft 4 kts 203°
2026-05-06 18:19 35.75674 6.31086 2696 ft 14 kts 188°
2026-05-06 18:19 35.75579 6.31070 2696 ft 13 kts 188°
2026-05-06 18:19 35.75490 6.31053 2696 ft 13 kts 196°
2026-05-06 18:19 35.75430 6.30976 2696 ft 13 kts 234°
2026-05-06 18:20 35.75380 6.30889 2697 ft 12 kts 234°
2026-05-06 18:20 35.75329 6.30800 2697 ft 15 kts 235°
2026-05-06 18:20 35.75261 6.30680 2697 ft 19 kts 234°
2026-05-06 18:20 35.75182 6.30542 2697 ft 20 kts 234°
2026-05-06 18:21 35.75103 6.30407 2697 ft 19 kts 234°
2026-05-06 18:21 35.75028 6.30277 2696 ft 18 kts 234°
2026-05-06 18:21 35.74957 6.30149 2696 ft 18 kts 236°
2026-05-06 18:21 35.74888 6.30030 2696 ft 16 kts 234°
2026-05-06 18:22 35.74818 6.29932 2696 ft 15 kts 206°
2026-05-06 18:22 35.74751 6.29951 2697 ft 8 kts 146°
2026-05-06 18:22 35.74706 6.29987 2698 ft 8 kts 146°
2026-05-06 18:22 35.74677 6.30037 2698 ft 7 kts 85°
2026-05-06 18:23 35.74711 6.30106 2697 ft 19 kts 56°
2026-05-06 18:23 35.74934 6.30494 2698 ft 92 kts 54°
2026-05-06 18:23 35.75426 6.31356 2699 ft 153 kts 54°
2026-05-06 18:23 35.76129 6.32519 3099 ft 176 kts 54°
2026-05-06 18:24 35.76848 6.33722 4020 ft 173 kts 51°
2026-05-06 18:24 35.77787 6.34592 4983 ft 170 kts 24°
2026-05-06 18:24 35.78981 6.34818 5595 ft 187 kts 356°
2026-05-06 18:24 35.80252 6.34323 6275 ft 195 kts 330°
2026-05-06 18:25 35.81325 6.33293 7038 ft 199 kts 314°
2026-05-06 18:25 35.82236 6.32047 7849 ft 191 kts 304°
2026-05-06 18:25 35.82900 6.30668 8690 ft 190 kts 290°
2026-05-06 18:25 35.83461 6.29027 8789 ft 228 kts 289°
2026-05-06 18:26 35.84160 6.27170 9288 ft 244 kts 298°
2026-05-06 18:26 35.85171 6.25447 10064 ft 252 kts 307°
2026-05-06 18:26 35.86331 6.23852 10806 ft 256 kts 308°
2026-05-06 18:26 35.87566 6.22148 11130 ft 280 kts 308°
2026-05-06 18:27 35.88917 6.20264 11342 ft 307 kts 308°
2026-05-06 18:27 35.90398 6.18213 11526 ft 332 kts 309°
2026-05-06 18:27 35.91992 6.16026 11729 ft 354 kts 309°
2026-05-06 18:27 35.93673 6.13743 12272 ft 363 kts 309°
2026-05-06 18:28 35.95355 6.11472 13042 ft 364 kts 309°
2026-05-06 18:28 35.97064 6.09175 13866 ft 364 kts 309°
2026-05-06 18:28 35.98788 6.06858 14490 ft 369 kts 309°
2026-05-06 18:28 36.00539 6.04504 15116 ft 374 kts 309°
2026-05-06 18:29 36.02301 6.02134 15765 ft 377 kts 309°
2026-05-06 18:29 36.04080 5.99739 16401 ft 380 kts 308°
2026-05-06 18:29 36.05886 5.97307 17023 ft 384 kts 308°
2026-05-06 18:29 36.07700 5.94862 17603 ft 388 kts 308°
2026-05-06 18:30 36.09535 5.92386 18192 ft 392 kts 308°
2026-05-06 18:30 36.11385 5.89888 18721 ft 395 kts 308°
2026-05-06 18:30 36.13221 5.87408 19265 ft 397 kts 308°
2026-05-06 18:30 36.15089 5.84884 19820 ft 400 kts 308°
2026-05-06 18:31 36.16974 5.82335 20349 ft 403 kts 308°
2026-05-06 18:31 36.18875 5.79760 20859 ft 406 kts 308°
2026-05-06 18:31 36.20786 5.77171 21379 ft 408 kts 307°
2026-05-06 18:31 36.22700 5.74575 21888 ft 411 kts 307°
2026-05-06 18:32 36.24633 5.71952 22372 ft 414 kts 307°
2026-05-06 18:32 36.26560 5.69334 22844 ft 417 kts 307°
2026-05-06 18:32 36.28521 5.66669 23309 ft 420 kts 307°
2026-05-06 18:32 36.30491 5.63989 23733 ft 422 kts 307°
2026-05-06 18:33 36.32466 5.61300 24182 ft 422 kts 307°
2026-05-06 18:33 36.34431 5.58627 24762 ft 418 kts 306°
2026-05-06 18:33 36.36392 5.55956 25266 ft 417 kts 306°
2026-05-06 18:33 36.38344 5.53290 25623 ft 419 kts 305°
2026-05-06 18:34 36.40298 5.50623 25894 ft 416 kts 305°
2026-05-06 18:34 36.42245 5.47962 25926 ft 417 kts 305°
2026-05-06 18:34 36.44208 5.45273 25927 ft 420 kts 305°
2026-05-06 18:34 36.46133 5.42635 25942 ft 421 kts 305°
2026-05-06 18:35 36.48104 5.39933 25924 ft 421 kts 305°
2026-05-06 18:35 36.50071 5.37235 25925 ft 421 kts 305°
2026-05-06 18:35 36.52036 5.34539 25927 ft 421 kts 305°
2026-05-06 18:35 36.53998 5.31839 25958 ft 423 kts 305°
2026-05-06 18:36 36.55979 5.29114 25908 ft 424 kts 306°
2026-05-06 18:36 36.57946 5.26409 25919 ft 424 kts 305°
2026-05-06 18:36 36.59936 5.23671 25915 ft 425 kts 305°
2026-05-06 18:36 36.61887 5.20983 25919 ft 424 kts 305°
2026-05-06 18:37 36.63855 5.18269 25908 ft 423 kts 305°
2026-05-06 18:37 36.65165 5.16462 25916 ft 423 kts 305°
2026-05-06 18:37 36.67793 5.12832 25916 ft 422 kts 305°
2026-05-06 18:37 36.69739 5.10099 25917 ft 419 kts 302°
2026-05-06 18:38 36.71406 5.07141 25918 ft 414 kts 295°
2026-05-06 18:38 36.72719 5.03980 25915 ft 409 kts 287°
2026-05-06 18:38 36.73721 5.00719 25918 ft 409 kts 286°
2026-05-06 18:38 36.74721 4.97396 25922 ft 410 kts 286°
2026-05-06 18:39 36.75725 4.94064 25916 ft 409 kts 286°
2026-05-06 18:39 36.76724 4.90770 25909 ft 404 kts 286°
2026-05-06 18:39 36.77719 4.87498 25917 ft 404 kts 286°
2026-05-06 18:40 36.79721 4.80930 25683 ft 408 kts 287°
2026-05-06 18:40 36.80725 4.77641 25187 ft 403 kts 287°
2026-05-06 18:40 36.81718 4.74391 24654 ft 398 kts 287°
2026-05-06 18:40 36.82699 4.71175 24085 ft 395 kts 287°
2026-05-06 18:41 36.83658 4.68027 23465 ft 394 kts 288°
2026-05-06 18:41 36.84628 4.64838 22797 ft 393 kts 288°
2026-05-06 18:41 36.85595 4.61654 22179 ft 390 kts 288°
2026-05-06 18:41 36.86554 4.58496 21582 ft 387 kts 288°
2026-05-06 18:42 36.87504 4.55361 20989 ft 385 kts 288°
2026-05-06 18:42 36.88446 4.52251 20431 ft 382 kts 288°
2026-05-06 18:42 36.89368 4.49204 19857 ft 379 kts 288°
2026-05-06 18:42 36.90294 4.46138 19294 ft 376 kts 288°
2026-05-06 18:43 36.91212 4.43092 18735 ft 373 kts 287°
2026-05-06 18:43 36.92121 4.40077 18169 ft 371 kts 287°
2026-05-06 18:43 36.93026 4.37072 17536 ft 369 kts 288°
2026-05-06 18:43 36.93929 4.34069 16950 ft 366 kts 288°
2026-05-06 18:44 36.94818 4.31108 16384 ft 363 kts 288°
2026-05-06 18:44 36.95703 4.28160 15823 ft 360 kts 288°
2026-05-06 18:44 36.96580 4.25236 15289 ft 358 kts 288°
2026-05-06 18:44 36.97439 4.22366 14760 ft 356 kts 288°
2026-05-06 18:45 36.98303 4.19478 14240 ft 354 kts 289°
2026-05-06 18:45 36.99162 4.16603 13698 ft 352 kts 289°
2026-05-06 18:45 37.00017 4.13739 13096 ft 351 kts 289°
2026-05-06 18:45 37.00585 4.11835 12679 ft 351 kts 289°
2026-05-06 18:46 37.01573 4.07963 11810 ft 351 kts 275°
2026-05-06 18:46 37.01360 4.04951 11328 ft 347 kts 255°
2026-05-06 18:46 37.00488 4.02205 11226 ft 332 kts 243°
2026-05-06 18:46 36.99384 3.99743 11131 ft 319 kts 240°
2026-05-06 18:47 36.98295 3.97438 10972 ft 303 kts 240°
2026-05-06 18:47 36.97228 3.95197 10750 ft 296 kts 240°
2026-05-06 18:47 36.96202 3.93030 10569 ft 283 kts 240°
2026-05-06 18:47 36.95212 3.90923 10325 ft 278 kts 240°
2026-05-06 18:48 36.94250 3.88862 10132 ft 273 kts 240°
2026-05-06 18:48 36.93298 3.86815 9845 ft 272 kts 240°
2026-05-06 18:48 36.92350 3.84773 9515 ft 272 kts 240°
2026-05-06 18:48 36.91400 3.82726 9210 ft 271 kts 240°
2026-05-06 18:49 36.90462 3.80702 8925 ft 269 kts 240°
2026-05-06 18:49 36.89536 3.78705 8626 ft 268 kts 240°
2026-05-06 18:49 36.88605 3.76694 8336 ft 267 kts 240°
2026-05-06 18:49 36.87673 3.74686 8046 ft 266 kts 240°
2026-05-06 18:50 36.86751 3.72697 7756 ft 265 kts 240°
2026-05-06 18:50 36.85828 3.70708 7477 ft 264 kts 240°
2026-05-06 18:50 36.84907 3.68725 7184 ft 264 kts 240°
2026-05-06 18:50 36.83988 3.66747 6905 ft 264 kts 240°
2026-05-06 18:51 36.83081 3.64795 6624 ft 262 kts 240°
2026-05-06 18:51 36.82168 3.62830 6362 ft 261 kts 240°
2026-05-06 18:51 36.81258 3.60877 6006 ft 263 kts 240°
2026-05-06 18:51 36.80334 3.58894 5613 ft 265 kts 240°
2026-05-06 18:52 36.79542 3.57209 5258 ft 262 kts 238°
2026-05-06 18:52 36.78446 3.55412 4858 ft 259 kts 230°
2026-05-06 18:52 36.77252 3.53751 4455 ft 256 kts 228°
2026-05-06 18:52 36.76058 3.52117 4055 ft 254 kts 228°
2026-05-06 18:53 36.74876 3.50487 3652 ft 252 kts 229°
2026-05-06 18:53 36.73742 3.48903 3419 ft 244 kts 229°
2026-05-06 18:53 36.72640 3.47352 3232 ft 234 kts 229°
2026-05-06 18:53 36.71579 3.45852 3082 ft 230 kts 229°
2026-05-06 18:54 36.70518 3.44351 2916 ft 229 kts 229°
2026-05-06 18:54 36.69477 3.42872 2723 ft 223 kts 230°
2026-05-06 18:54 36.68874 3.41161 2548 ft 216 kts 265°
2026-05-06 18:54 36.68788 3.39290 2525 ft 214 kts 267°
2026-05-06 18:55 36.68753 3.37487 2520 ft 201 kts 271°
2026-05-06 18:55 36.68779 3.35795 2386 ft 193 kts 272°
2026-05-06 18:55 36.68815 3.34199 2152 ft 182 kts 272°
2026-05-06 18:55 36.68849 3.32675 1924 ft 172 kts 272°
2026-05-06 18:56 36.68881 3.31243 1729 ft 160 kts 272°
2026-05-06 18:56 36.68912 3.29864 1495 ft 157 kts 272°
2026-05-06 18:56 36.68942 3.28515 1289 ft 156 kts 272°
2026-05-06 18:56 36.68973 3.27164 1081 ft 155 kts 272°
2026-05-06 18:57 36.69002 3.25842 881 ft 154 kts 273°
2026-05-06 18:57 36.69026 3.24497 638 ft 155 kts 273°
2026-05-06 18:57 36.69061 3.23182 413 ft 154 kts 274°
2026-05-06 18:57 36.69090 3.21851 255 ft 154 kts 273°
2026-05-06 18:58 36.69121 3.20518 78 ft 149 kts 273°
2026-05-06 18:58 36.69152 3.19360 71 ft 117 kts 274°
2026-05-06 18:58 36.69181 3.18399 74 ft 125 kts 273°
2026-05-06 18:58 36.69199 3.17061 441 ft 175 kts 273°
2026-05-06 18:59 36.69229 3.15400 1221 ft 206 kts 272°
2026-05-06 18:59 36.69582 3.13530 1119 ft 223 kts 302°
2026-05-06 18:59 36.70585 3.12081 896 ft 232 kts 328°
2026-05-06 18:59 36.72187 3.11328 1804 ft 262 kts 351°
2026-05-06 19:00 36.73955 3.10784 1960 ft 257 kts 345°
2026-05-06 19:00 36.75644 3.10677 1974 ft 237 kts 15°
2026-05-06 19:00 36.77192 3.11347 2015 ft 252 kts 25°
2026-05-06 19:00 36.78304 3.11975 2488 ft 275 kts 28°
2026-05-06 19:01 36.80148 3.14372 3528 ft 315 kts 66°
2026-05-06 19:01 36.80559 3.17131 4280 ft 331 kts 90°
2026-05-06 19:01 36.80307 3.19901 4361 ft 311 kts 96°
2026-05-06 19:01 36.80077 3.22503 4462 ft 291 kts 95°
2026-05-06 19:02 36.79871 3.24932 4546 ft 273 kts 95°
2026-05-06 19:02 36.79677 3.27229 4339 ft 265 kts 95°
2026-05-06 19:02 36.79488 3.29465 4026 ft 251 kts 95°
2026-05-06 19:02 36.79305 3.31575 3632 ft 242 kts 97°
2026-05-06 19:03 36.78635 3.33434 3194 ft 237 kts 133°
2026-05-06 19:03 36.77232 3.34402 2845 ft 230 kts 161°
2026-05-06 19:03 36.75710 3.34961 2467 ft 227 kts 161°
2026-05-06 19:03 36.74245 3.35450 2310 ft 207 kts 171°
2026-05-06 19:04 36.72936 3.35102 2313 ft 183 kts 206°
2026-05-06 19:04 36.71869 3.34429 2177 ft 163 kts 204°
2026-05-06 19:04 36.70889 3.33832 2077 ft 153 kts 203°
2026-05-06 19:04 36.70079 3.32986 1964 ft 156 kts 233°
2026-05-06 19:05 36.69397 3.31883 1806 ft 163 kts 235°
2026-05-06 19:05 36.69073 3.30566 1609 ft 158 kts 268°
2026-05-06 19:05 36.69011 3.29205 1402 ft 158 kts 265°
2026-05-06 19:05 36.68934 3.27861 1151 ft 156 kts 270°
2026-05-06 19:06 36.68976 3.26533 941 ft 152 kts 273°
2026-05-06 19:06 36.69023 3.25227 820 ft 150 kts 274°
2026-05-06 19:06 36.69052 3.23878 611 ft 158 kts 271°
2026-05-06 19:06 36.69062 3.22538 324 ft 151 kts 275°
2026-05-06 19:07 36.69101 3.21234 126 ft 151 kts 273°
2026-05-06 19:07 36.69127 3.20404 77 ft 137 kts 273°
2026-05-06 19:07 36.69155 3.19226 75 ft 65 kts 271°
2026-05-06 19:07 36.69163 3.18842 78 ft 32 kts 271°
2026-05-06 19:08 36.69169 3.18579 78 ft 26 kts 271°
2026-05-06 19:08 36.69202 3.18436 74 ft 12 kts 330°
2026-05-06 19:08 36.69291 3.18429 71 ft 15 kts
2026-05-06 19:08 36.69340 3.18520 70 ft 14 kts 92°
2026-05-06 19:09 36.69337 3.18639 70 ft 14 kts 92°
2026-05-06 19:09 36.69333 3.18753 64 ft 13 kts 91°
2026-05-06 19:09 36.69330 3.18865 70 ft 13 kts 91°
2026-05-06 19:09 36.69328 3.18972 70 ft 13 kts 91°
2026-05-06 19:10 36.69325 3.19097 70 ft 16 kts 92°
2026-05-06 19:10 36.69324 3.19254 68 ft 20 kts 93°
2026-05-06 19:10 36.69318 3.19433 63 ft 21 kts 91°
2026-05-06 19:10 36.69314 3.19611 69 ft 20 kts 92°
2026-05-06 19:11 36.69309 3.19781 70 ft 19 kts 90°
2026-05-06 19:11 36.69359 3.19892 64 ft 16 kts 11°
2026-05-06 19:11 36.69448 3.19951 66 ft 15 kts 66°
2026-05-06 19:11 36.69454 3.20048 69 ft 7 kts 93°
2026-05-06 19:12 36.69452 3.20104 69 ft 6 kts 93°
2026-05-06 19:12 36.69451 3.20158 69 ft 6 kts 91°
2026-05-06 19:12 36.69450 3.20212 60 ft 7 kts 91°
2026-05-06 19:12 36.69449 3.20258 62 ft 9 kts 91°
2026-05-06 19:13 36.69459 3.20360 64 ft 7 kts 53°
2026-05-06 19:13 36.69478 3.20368 67 ft 8 kts
2026-05-06 19:13 36.69538 3.20366 69 ft 9 kts 357°
2026-05-06 19:13 36.69596 3.20382 61 ft 8 kts 38°
2026-05-06 19:14 36.69608 3.20432 61 ft 5 kts 97°
2026-05-06 19:14 36.69605 3.20459 65 ft 5 kts 98°
2026-05-06 19:14 36.69602 3.20512 66 ft 5 kts 92°
2026-05-06 19:14 36.69605 3.20551 69 ft 5 kts 65°
2026-05-06 19:15 36.69632 3.20571 64 ft 5 kts 20°
2026-05-06 19:15 36.69662 3.20584 65 ft 5 kts 19°
2026-05-06 19:15 36.69676 3.20591 67 ft 2 kts 21°
2026-05-06 19:15 36.69683 3.20594 64 ft 0 kts 21°